Regional Weather Roundup
Issued by NWS Midland/Odessa, TX

Skip options and go directly to product.
Home | Oldest Version | Previous Version | Current Version | All | Text Only | Save Text | Print | Product List | Glossary On

Skip product version selection by date and time.   
599
ASUS44 KMAF 211602
RWRMAF
MIDLAND AREA WEATHER ROUNDUP
NATIONAL WEATHER SERVICE MIDLAND TX
1100 AM CDT THU AUG 21 2014

...IN SOUTHWEST TEXAS AND SOUTHEAST NEW MEXICO...

CITY           SKY/WX    TMP DP  RH WIND       PRES   REMARKS
ALPINE         MOSUNNY   78  62  57 W9        30.21S
ANDREWS        FAIR      85  63  48 S15G21    30.04S
ARTESIA        SUNNY     86  50  28 CALM      30.04R
BIG SPRING     SUNNY     84  67  55 S21G26    30.05F
CARLSBAD       SUNNY     86  53  32 SE8       30.02R
DRYDEN           N/A     89  68  49 SE9       30.03S
FORT STOCKTON  SUNNY     86  62  44 SW13      30.05S
GUAD PASS      MOSUNNY   73  50  44 W16       30.20R
HOBBS          MOSUNNY   82  59  44 S15G21    30.07R
MARFA          SUNNY     75  61  60 SE10      30.21F
MIDLAND AIRPK  SUNNY     85  65  51 S14G22    30.04S
MIDLAND INTL   SUNNY     84  67  56 S18       30.04S
ODESSA         SUNNY     82  66  58 SW17      30.05S
PECOS          SUNNY     86  61  43 S6        30.02R
PRESIDIO       FAIR      83  63  50 CALM      30.06F
SEMINOLE       SUNNY     84  61  44 S14       30.05F
SNYDER         SUNNY     82  69  65 S20G25    30.04S
WINK           SUNNY     86  62  44 SE6       30.01S
$$
...OTHER STATIONS IN TEXAS...

CITY           SKY/WX    TMP DP  RH WIND       PRES   REMARKS
ABILENE        MOSUNNY   87  70  56 S25G31    30.03S
AMARILLO       MOSUNNY   81  63  54 S15       30.02S
AUSTIN         MOSUNNY   90  69  50 S16G23    30.05F
BROWNSVILLE    MOSUNNY   93  74  53 S24       30.05R HX 103
CORPUS CHRISTI MOSUNNY   90  74  59 S23       30.05S
DALLAS FTW     PTSUNNY   88  72  58 S22G28    30.02S
DEL RIO        CLOUDY    84  71  65 SE14      30.01R
EL PASO        MOSUNNY   82  52  35 SW9       30.08S
HOUSTON INT    MOSUNNY   89  74  60 S12G17    30.09S
LUBBOCK        MOSUNNY   83  65  54 S16       30.04S
SAN ANGELO     SUNNY     86  70  58 S16G28    30.03F
SAN ANTONIO    MOSUNNY   89  70  53 S20       30.07R
WACO           MOSUNNY   89  71  55 S20       30.05R
WICHITA FALLS  NOT AVBL
$$
...OTHER LOCATIONS IN NEW MEXICO...

CITY           SKY/WX    TMP DP  RH WIND       PRES   REMARKS
ALAMAGORDO     MOSUNNY   81  50  34 S8        30.10S
ALBUQUERQUE    MOSUNNY   76  42  29 NE3       30.18S
CANNON AFB     SUNNY     80  60  49 SW8       30.07S
CLOVIS           N/A     81  61  50 S10       30.09S
HOLLOMAN AFB   MOSUNNY   81  52  36 S7        30.08R
ROSWELL        SUNNY     81  60  48 N5        30.03S
RUIDOSO        SUNNY     72  50  46 NE3       30.28R
SANTA FE       SUNNY     75  39  27 N9        30.22S
TRUTH OR CONSE SUNNY     78  47  33 NE9       30.13S
TUCUMCARI      MOSUNNY   83  59  44 NW7       30.03R
$$

USA.gov is the U.S. government's official web portal to all federal, state and local government web resources and services.